STARLINK-32153, 60330

Orbit data source: Space-Track

STARLINK-32153, 60330 is a payload satellite owned by SpaceX/Seattle (US) in LEO that was launched on Fri, 02 Aug 2024 UTC via an FALCON 9 launch vehicle from the Air Force Eastern Test Range (AFETR). Payload-class satellites include a variety of spacecraft equipped with specific instruments for various scientific and technological missions. These include communications satellites like Starlink; space stations such as the ISS; scientific satellites like the Hubble; Earth observation satellites from companies like Planet Labs, Umbra, and HawkEye 360; GPS; miniature CubeSats for education and research; and military/defense satellites.

Loading next visibility...
Identifier
60330, 2024-136B
Orbit
LEO
Country
Flag of USUS
Related business
Manufacturer
SpaceX/Seattle
Mission
Operational Commercial Communications
Bus & Motor
STARLINK V2M, Unknown motor
Mass
730 kg wet, ~700 kg dry
Launch date (UTC)
2024-08-02 (1 year ago)
Launch vehicle
FALCON 9
Launch site
Air Force Eastern Test Range (AFETR)
Object type
Payload
Rocket body
Debris
Shape & HBR
Box + 2 Pan, 17.7 m
Radar Cross Section
33.884 m², Large (>1 m²)

Expand to show TLE details & history
Last TLE update: 1 day ago

TLE from 1 day ago
0 STARLINK-32153
1 60330U 24136B   25312.61823523  .00002151  00000-0  84717-4 0  9991
2 60330  53.1614 278.3434 0001249  98.0054 262.1088 15.30207499 71125
Epoch: 2025-11-08T14:50Z
TLE epoch observation values (Epoch: 2025-11-08T14:50:15.523Z)
Latitude
-0.00009°
Longitude
7.73339°
Altitude
476.21 km
Speed
7.629 km/s
True Right ascension
18h 33m 22s
True Declination
0° 00' 00"
Sunlit
Object was in daylight at epoch
Visualization orbit readout
Latitude
Unknown
Longitude
Unknown
Altitude
Unknown
Speed
Unknown
Apparent Right ascension
Unknown
Apparent Declination
Unknown
Sunlit
N/A
Visualization observer readout
Local Sidereal Time
15:33:31
Azimuth
Unknown
Elevation
Unknown
Doppler factor
Unknown
Orbital elements
Apogee altitude
476.305 km
Perigee altitude
474.593 km
Semi-major axis
6,853.586 km
Eccentricity
0.00012
Inclination
53.1614°
RAAN
278.3434°
Arg. of periapsis
98.0054°
True anomaly
262.09462°
Mean anomaly
262.1088°
Eccentric anomaly
262.10171°
Mean motion
3.82531 °/min
Orbital period
94.11 mins
BSTAR
0.000084717
Loading maneuver chart data...
Computing Atmospheric mass density...
Loading historical data...
Loading historical data...
Loading historical data...
Loading historical data...
Loading historical data...
Loading historical data...
Loading historical data...

Documentation

Showing up to 5 results
|